Regional Weather Roundup
Issued by NWS Bismarck, ND

Home | Current Version | Previous Version | Text Only | Print | Product List | Glossary On
Versions: 1 2 3 4 5 6 7 8 9 10 11 12 13 14 15 16 17 18 19 20 21 22 23 24 25 26 27 28 29 30 31 32 33 34 35 36 37 38 39 40 41 42 43 44 45 46 47 48 49 50
000
ASUS43 KBIS 211710
RWRBIS

NWR BROADCAST TEXT
NATIONAL WEATHER SERVICE BISMARCK ND
1100 AM CST SAT JAN 21 2017

NOTE: "FAIR" INDICATES FEW OR NO CLOUDS BELOW 12,000 FEET WITH NO
SIGNIFICANT WEATHER AND/OR OBSTRUCTIONS TO VISIBILITY.


CITY           SKY/WX    TMP DP  RH WIND       PRES   REMARKS
WILLISTON      CLOUDY    31  25  78 W6        29.35R
MINOT          CLOUDY    30  27  88 SE3       29.34R FOG
MINOT AFB      CLOUDY    27  26  96 CALM      29.33S FOG
BISMARCK       CLOUDY    29  26  89 W6        29.37R FOG
DICKINSON      PTSUNNY   29  24  82 W12       29.32R WCI  19
GARRISON         N/A     22  21  96 CALM      29.34R
HETTINGER ARPT CLOUDY    31  26  82 W15       29.36R
JAMESTOWN      SNOW      33  33 100 E7        29.36R VSB 1/2
CARRINGTON     FOG       34  34 100 SE7       29.39R VSB<1/4
HAZEN          HVY SNOW N/A N/A N/A W5        29.38R VSB<1/4
MANDAN         CLOUDY    25  25 100 W7        29.37R FOG     WCI  17
RUGBY          FOG       32  32 100 SE5       29.36R VSB 1/4
STANLEY        FAIR      19  21 100 CALM      29.34R
TIOGA          CLOUDY    21  21 100 CALM      29.34R
WATFORD CITY   FAIR      32  27  80 SW6       29.35R
$$

CITY           SKY/WX    TMP DP  RH WIND       PRES   REMARKS
GRAND FORKS    CLOUDY    36  32  85 SE10      29.42S
GRAND FORKS AF CLOUDY    34  34  99 SE8       29.42R
DEVILS LAKE    SNOW      33  33 100 SE7       29.39R VSB 1/4
FARGO          CLOUDY    39  34  82 SE7       29.41R
CAVALIER       CLOUDY    34  34 100 SE5       29.44R FOG
GRAFTON        CLOUDY    34  34 100 SE6       29.45S FOG
GWINNER        CLOUDY    34  34 100 E10       29.38R
ROLLA            N/A    N/A N/A N/A MISG        N/A
$$

CITY           SKY/WX    TMP DP  RH WIND       PRES   REMARKS
ABERDEEN       CLOUDY    30  25  81 SW3       29.37R
MOBRIDGE       CLOUDY    27  24  89 NW8       29.35R FOG     WCI  19
BUFFALO          N/A     30  25  81 NW13      29.30R WCI  20
RAPID CITY     FAIR      38  30  73 W5        29.39R
GLASGOW        FOG       15  12  88 W12       29.38R VSB 1/4 WCI   2
SIDNEY         PTSUNNY   31  24  75 CALM      29.38R
WOLF POINT     FAIR      21  17  84 SW13      29.39R WCI   9
GLENDIVE       FAIR      22  17  81 S5        29.39R WCI  16
MILES CITY     FOG       19  16  88 S5        29.42R VSB 1/4 WCI  12
BAKER          FAIR      22  19  89 NW3       29.38R
$$

CITY           SKY/WX    TMP DP  RH WIND       PRES   REMARKS
BILLINGS       PTSUNNY   20  16  84 SW18      29.40R WCI   5
GREAT FALLS    FAIR      23  18  81 SW7       29.40R WCI  15
REGINA         FOG       23  21  93 S3        29.33R VSB 3/8
ESTEVAN        FOG       18  16  93 CALM      29.34R VSB 3/4
$$





USA.gov is the U.S. government's official web portal to all federal, state and local government web resources and services.